Waarnemingen

Advertentie
Mijn weer
Bari Palese, Italië (16270): temperatuur & dauwpunt: 11.12.2017 03:00:00 - 17.12.2017 03:00:00 (CET)Bari Palese, Italië (16270): windsnelheid: 11.12.2017 03:00:00 - 17.12.2017 03:00:00 (CET)Bari Palese, Italië (16270): windrichting: 11.12.2017 03:00:00 - 17.12.2017 03:00:00 (CET)Bari Palese, Italië (16270): luchtdruk: 11.12.2017 03:00:00 - 17.12.2017 03:00:00 (CET)Bari Palese, Italië (16270): zicht: 11.12.2017 03:00:00 - 17.12.2017 03:00:00 (CET)Bari Palese, Italië (16270): neerslag: 11.12.2017 03:00:00 - 17.12.2017 03:00:00 (CET)
Datum & Tijd tt [°C] td [°C] ff [km/u] ff [kn] dd ppp [hPa] vv [km] rr [mm]
17.12.2017 03:00:00 - - - - - - - -
17.12.2017 02:00:00 - - - - - - - -
17.12.2017 01:00:00 7,5 3,8 2 1 ZW 1009,0 16 0,0
17.12.2017 00:00:00 - - - - - - - -
16.12.2017 23:00:00 - - - - - - - -
16.12.2017 22:00:00 9,7 4,2 15 8 W 1008,8 15 -
16.12.2017 21:00:00 - - - - - - - -
16.12.2017 20:00:00 - - - - - - - -
16.12.2017 19:00:00 9,6 4,5 8 4 ZW 1007,5 15 0,0
16.12.2017 18:00:00 - - - - - - - -
16.12.2017 17:00:00 - - - - - - - -
16.12.2017 16:00:00 10,3 5,2 11 6 ZZW 1006,8 15 -
16.12.2017 15:00:00 - - - - - - - -
16.12.2017 14:00:00 - - - - - - - -
16.12.2017 13:00:00 10,7 5,1 8 4 ZW 1006,8 15 0,0
16.12.2017 12:00:00 - - - - - - - -
16.12.2017 11:00:00 - - - - - - - -
16.12.2017 10:00:00 12,3 3,0 13 7 W 1007,0 17 -
16.12.2017 09:00:00 - - - - - - - -
16.12.2017 08:00:00 - - - - - - - -
16.12.2017 07:00:00 9,8 6,9 8 4 W 1005,6 14 0,0
16.12.2017 06:00:00 - - - - - - - -
16.12.2017 05:00:00 - - - - - - - -
16.12.2017 04:00:00 11,5 10,4 4 2 ZW 1002,5 14 -
16.12.2017 03:00:00 - - - - - - - -
16.12.2017 02:00:00 - - - - - - - -
16.12.2017 01:00:00 13,4 4,5 8 4 ZZW 1001,4 14 0,0
16.12.2017 00:00:00 - - - - - - - -
15.12.2017 23:00:00 - - - - - - - -
15.12.2017 22:00:00 14,1 3,4 11 6 Z 1002,1 14 -
15.12.2017 21:00:00 - - - - - - - -
15.12.2017 20:00:00 - - - - - - - -
15.12.2017 19:00:00 14,3 4,6 22 12 Z 1003,1 14 0,0
15.12.2017 18:00:00 - - - - - - - -
15.12.2017 17:00:00 - - - - - - - -
15.12.2017 16:00:00 - - - - - - - -
15.12.2017 15:00:00 - - - - - - - -
15.12.2017 14:00:00 - - - - - - - -
15.12.2017 13:00:00 14,7 8,0 5 3 Z 1006,6 15 0,0
15.12.2017 12:00:00 - - - - - - - -
15.12.2017 11:00:00 - - - - - - - -
15.12.2017 10:00:00 14,3 8,8 21 11 ZZW 1008,7 15 -
15.12.2017 09:00:00 - - - - - - - -
15.12.2017 08:00:00 - - - - - - - -
15.12.2017 07:00:00 14,4 9,0 11 6 ZZW 1009,7 15 0,0
15.12.2017 06:00:00 - - - - - - - -
15.12.2017 05:00:00 - - - - - - - -
15.12.2017 04:00:00 11,6 8,5 9 5 ZZW 1009,7 15 -
15.12.2017 03:00:00 - - - - - - - -
15.12.2017 02:00:00 - - - - - - - -
15.12.2017 01:00:00 11,6 8,2 9 5 Z 1011,7 25 0,0
15.12.2017 00:00:00 - - - - - - - -
14.12.2017 23:00:00 - - - - - - - -
14.12.2017 22:00:00 11,2 5,8 9 5 Z 1013,2 25 -
14.12.2017 21:00:00 - - - - - - - -
14.12.2017 20:00:00 - - - - - - - -
14.12.2017 19:00:00 12,3 5,6 9 5 ZZW 1014,5 15 0,0
14.12.2017 18:00:00 - - - - - - - -
14.12.2017 17:00:00 - - - - - - - -
14.12.2017 16:00:00 13,6 5,1 9 5 ZZW 1014,3 13 -
14.12.2017 15:00:00 - - - - - - - -
14.12.2017 14:00:00 - - - - - - - -
14.12.2017 13:00:00 14,3 6,2 15 8 W 1014,6 13 0,0
14.12.2017 12:00:00 - - - - - - - -
14.12.2017 11:00:00 - - - - - - - -
14.12.2017 10:00:00 13,1 5,6 21 11 W 1016,1 13 -
14.12.2017 09:00:00 - - - - - - - -
14.12.2017 08:00:00 - - - - - - - -
14.12.2017 07:00:00 8,0 3,1 11 6 ZW 1016,0 10 0,0
14.12.2017 06:00:00 - - - - - - - -
14.12.2017 05:00:00 - - - - - - - -
14.12.2017 04:00:00 5,6 2,5 13 7 ZW 1016,8 10 -
14.12.2017 03:00:00 - - - - - - - -
14.12.2017 02:00:00 - - - - - - - -
14.12.2017 01:00:00 6,3 4,5 9 5 WZW 1017,5 9 0,0
14.12.2017 00:00:00 - - - - - - - -
13.12.2017 23:00:00 - - - - - - - -
13.12.2017 22:00:00 9,5 6,0 11 6 WZW 1017,7 9 -
13.12.2017 21:00:00 - - - - - - - -
13.12.2017 20:00:00 - - - - - - - -
13.12.2017 19:00:00 11,1 8,5 13 7 WZW 1017,5 9 -
13.12.2017 18:00:00 - - - - - - - -
13.12.2017 17:00:00 - - - - - - - -
13.12.2017 16:00:00 11,3 10,1 8 4 ZO 1017,7 15 -
13.12.2017 15:00:00 - - - - - - - -
13.12.2017 14:00:00 - - - - - - - -
13.12.2017 13:00:00 14,7 9,5 16 9 NW 1018,2 15 0,0
13.12.2017 12:00:00 - - - - - - - -
13.12.2017 11:00:00 - - - - - - - -
13.12.2017 10:00:00 14,4 6,5 11 6 ZW 1018,9 20 -
13.12.2017 09:00:00 - - - - - - - -
13.12.2017 08:00:00 - - - - - - - -
13.12.2017 07:00:00 13,8 7,1 16 9 WZW 1018,8 20 0,0
13.12.2017 06:00:00 - - - - - - - -
13.12.2017 05:00:00 - - - - - - - -
13.12.2017 04:00:00 11,3 6,4 11 6 ZW 1017,8 25 -
13.12.2017 03:00:00 - - - - - - - -
13.12.2017 02:00:00 - - - - - - - -
13.12.2017 01:00:00 11,7 6,4 9 5 ZZW 1018,2 25 0,0
13.12.2017 00:00:00 - - - - - - - -
12.12.2017 23:00:00 - - - - - - - -
12.12.2017 22:00:00 11,8 7,3 9 5 ZZW 1018,5 25 -
12.12.2017 21:00:00 - - - - - - - -
12.12.2017 20:00:00 - - - - - - - -
12.12.2017 19:00:00 13,4 8,2 11 6 ZZW 1017,5 25 0,0
12.12.2017 18:00:00 - - - - - - - -
12.12.2017 17:00:00 - - - - - - - -
12.12.2017 16:00:00 16,5 9,3 11 6 Z 1016,4 25 -
12.12.2017 15:00:00 - - - - - - - -
12.12.2017 14:00:00 - - - - - - - -
12.12.2017 13:00:00 18,6 9,3 11 6 Z 1015,7 20 0,0
12.12.2017 12:00:00 - - - - - - - -
12.12.2017 11:00:00 - - - - - - - -
12.12.2017 10:00:00 17,1 10,1 8 4 Z 1016,6 20 -
12.12.2017 09:00:00 - - - - - - - -
12.12.2017 08:00:00 - - - - - - - -
12.12.2017 07:00:00 11,5 9,6 5 3 Z 1015,8 17 0,0
12.12.2017 06:00:00 - - - - - - - -
12.12.2017 05:00:00 - - - - - - - -
12.12.2017 04:00:00 11,7 9,5 11 6 Z 1014,5 14 -
12.12.2017 03:00:00 - - - - - - - -
12.12.2017 02:00:00 - - - - - - - -
12.12.2017 01:00:00 14,1 11,0 9 5 Z 1013,3 14 0,0
12.12.2017 00:00:00 - - - - - - - -
11.12.2017 23:00:00 - - - - - - - -
11.12.2017 22:00:00 13,3 10,2 8 4 ZZO 1013,2 15 -
11.12.2017 21:00:00 - - - - - - - -
11.12.2017 20:00:00 - - - - - - - -
11.12.2017 19:00:00 13,4 10,1 15 8 Z 1013,4 15 0,0
11.12.2017 18:00:00 - - - - - - - -
11.12.2017 17:00:00 - - - - - - - -
11.12.2017 16:00:00 13,4 7,0 13 7 Z 1013,7 15 -
11.12.2017 15:00:00 - - - - - - - -
11.12.2017 14:00:00 - - - - - - - -
11.12.2017 13:00:00 14,4 5,6 16 9 Z 1013,2 19 0,0
11.12.2017 12:00:00 - - - - - - - -
11.12.2017 11:00:00 - - - - - - - -
11.12.2017 10:00:00 13,1 5,3 21 11 ZZW 1015,0 19 -
11.12.2017 09:00:00 - - - - - - - -
11.12.2017 08:00:00 - - - - - - - -
11.12.2017 07:00:00 10,8 3,8 22 12 ZZW 1014,0 25 0,0
11.12.2017 06:00:00 - - - - - - - -
11.12.2017 05:00:00 - - - - - - - -
11.12.2017 04:00:00 9,6 3,1 21 11 ZZW 1014,4 25 -
11.12.2017 03:00:00 - - - - - - - -

tt = temperatuur
td = dauwpunt
ff = windsnelheid
dd = windrichting
ppp = luchtdruk
vv = zicht
rr = neerslag

Weerstations in de omgeving